Zurück zum Katalog

STARLINK-36541

AktivKommunikationVLEO
NORAD 67509·PAYLOAD·🇺🇸 United States

Gestartet Jan 18, 2026 von Cape Canaveral Space Force Station

Loading…

Nächste Überflüge (nächste 24 Stunden)

TLE

AktuellSource: CelesTrak SupGP

Epoche: Sep 15, 2026, 03:43 UTC

1 67509C 26012S   26258.15534722  .00042724  00000+0  15474-2 0  2589
2 67509  43.0016 324.7766 0001408 265.3235 109.3695 15.27558982    13

Verfolge STARLINK-36541 in Echtzeit mit AllMySat

Download on the App Store